Weather History for Thermal, CA

Change the Weather History Date:

Wednesday, May 7, 2014

  Actual Average Record
Temperature  
Mean Temperature 73 °F 76 °F  
Max Temperature 85 °F 93 °F 105 °F (1963)
Min Temperature 61 °F 60 °F 43 °F (1975)
Degree Days  
Heating Degree Days 0 0  
Month to date heating degree days 0 0  
Since 1 July heating degree days 821 1180  
Cooling Degree Days 8 11  
Month to date cooling degree days 77 74  
Year to date cooling degree days 439 330  
Growing Degree Days 22 (Base 50)    
Moisture  
Dew Point 40 °F    
Average Humidity 33    
Maximum Humidity 48    
Minimum Humidity 17    
Precipitation  
Precipitation 0.00 in 0.00 in 0.79 in (1976)
Month to date precipitation 0.00 0.00  
Year to date precipitation 0.08 1.77  
Since 1 July precipitation 1.55 3.15  
Snow  
Snow 0.00 in - - ()
Month to date snowfall 0.0  
Year to date snowfall 0.0  
Since 1 July snowfall 0.0  
Snow Depth 0.00 in    
Sea Level Pressure  
Sea Level Pressure 29.79 in    
Wind  
Wind Speed 12 mph (NW)    
Max Wind Speed 18 mph    
Max Gust Speed 26 mph    
Visibility 10 miles    
Events      
T = Trace of Precipitation, MM = Missing Value Source: NWS Daily Summary

Daily Weather History Graph

Daily Weather History Graph

Search for Another Location

Airport:

Trip Planner

Search our weather history database for the weather conditions in past years. The results will help you decide how hot, cold, wet, or windy it might be!

Date:

Astronomy

May. 07, 2014 Rise Set
Actual Time 5:50 AM PDT 7:32 PM PDT
Civil Twilight 5:23 AM PDT 7:59 PM PDT
Nautical Twilight 4:50 AM PDT 8:32 PM PDT
Astronomical Twilight 4:16 AM PDT 9:06 PM PDT
Moon 1:01 PM PDT (5/7) 1:31 AM PDT (5/7)
Length of Visible Light 14h 36m
Length of Day
13h 42m
First Quarter, 56% of the Moon is Illuminated
May 7
First Quarter
May 14
Full
May 21
Last Quarter
May 28
New
Jun 5
First Quarter

Hourly Weather History & Observations

Time (PDT) Temp. Dew Point Humidity Pressure Visibility Wind Dir Wind Speed Gust Speed Precip Events Conditions
12:52 AM 64.0 °F 39.0 °F 40% 29.75 in 10.0 mi NNW 11.5 mph - N/A   Clear
2:52 AM 63.0 °F 39.9 °F 43% 29.75 in 10.0 mi NNW 12.7 mph - N/A   Clear
3:52 AM 63.0 °F 39.9 °F 43% 29.75 in 10.0 mi NNW 15.0 mph - N/A   Clear
5:52 AM 62.1 °F 41.0 °F 46% 29.76 in 10.0 mi NNW 11.5 mph - N/A   Clear
6:52 AM 63.0 °F 42.1 °F 46% 29.78 in 10.0 mi NW 12.7 mph - N/A   Clear
7:52 AM 66.9 °F 41.0 °F 39% 29.80 in 10.0 mi NNW 12.7 mph 21.9 mph N/A   Clear
8:52 AM 71.1 °F 39.9 °F 32% 29.81 in 10.0 mi NW 16.1 mph 21.9 mph N/A   Clear
9:52 AM 73.9 °F 39.9 °F 29% 29.83 in 10.0 mi NW 11.5 mph - N/A   Clear
10:52 AM 75.9 °F 41.0 °F 29% 29.83 in 10.0 mi West 11.5 mph - N/A   Clear
11:52 AM 80.1 °F 39.0 °F 23% 29.83 in 10.0 mi WNW 11.5 mph 19.6 mph N/A   Clear
12:52 PM 81.0 °F 37.9 °F 21% 29.81 in 10.0 mi NW 10.4 mph - N/A   Clear
1:52 PM 81.0 °F 37.0 °F 21% 29.80 in 10.0 mi Calm Calm - N/A   Clear
3:52 PM 82.9 °F 37.0 °F 19% 29.77 in 10.0 mi NNW 16.1 mph 24.2 mph N/A   Clear
4:52 PM 82.9 °F 36.0 °F 19% 29.76 in 10.0 mi NNW 13.8 mph - N/A   Clear
5:52 PM 81.0 °F 37.0 °F 21% 29.77 in 10.0 mi NW 16.1 mph 21.9 mph N/A   Clear
6:52 PM 77.0 °F 41.0 °F 28% 29.77 in 8.0 mi NNW 18.4 mph 26.5 mph N/A   Clear
7:52 PM 73.0 °F 44.1 °F 35% 29.79 in 10.0 mi NNW 18.4 mph - N/A   Clear
8:52 PM 71.1 °F 45.0 °F 39% 29.81 in 10.0 mi NNW 13.8 mph - N/A   Clear
9:52 PM 71.1 °F 45.0 °F 39% 29.83 in 10.0 mi NNW 18.4 mph 27.6 mph N/A   Clear
10:52 PM 69.1 °F 46.0 °F 44% 29.84 in 10.0 mi NNW 17.3 mph - N/A   Clear